Погода в Павлово

Россия / Санкт-Петербург и Ленинградская область     59°48′29″N   30°53′06″E
темп.,
°C
ветер,
м/с
пор.,
м/с
влажн.,
%
обл.,
%
осадки,
мм/ч
давл.,
гПа
погр.,
м
31 июля, сб
сб3100:00+15ю3116915 0.0 998331
03:00+14ю41473100 0.0 996573
06:00+14ююз5129288 0.4 995831
09:00+16юз51083100 1.1 9941016
12:00+18зюз6128143 1.9 9961203
15:00+21з6115312 2.9 9981786
18:00+22з512460 0.0 10001830
21:00+17зюз226892 0.0 100129
1 августа, вс
вс100:00+16ююз277512 0.0 1002149
03:00+14юз299862 0.0 1003253
06:00+15ююз2995100 0.0 1003296
09:00+18ю367999 0.4 1002463
12:00+17ююз499167 1.8 1002505
15:00+22ююз487038 4.8 10011462
18:00+20зюз497692 1.2 1002763
21:00+17зюз3108216 1.4 1002356
2 августа, пн
пн200:00+16зюз31087100 0.0 1004466
03:00+13юз289811 0.0 1004212
06:00+13юз399199 0.0 1005309
09:00+19юз366391 0.0 1005818
12:00+23ююз2452100 0.1 10041671
15:00+20ююв3573100 1.0 1002690
18:00+16ююз1398100 3.3 1002183
21:00+15сз1299100 4.8 100077
3 августа, вт
вт300:00+15з1399100 0.6 1000113
03:00+15з2498100 0.8 999129
06:00+13зюз3109625 0.3 1000319
09:00+17зюз47825 0.5 1001664
12:00+21зюз574712 0.0 10021737
15:00+19з485711 0.1 10031324
18:00+17з48632 0.0 10051156
21:00+14з497910 0.0 1007648
4 августа, ср
ср400:00+14зсз3989100 0.3 1008415
03:00+13з2686100 0.3 1010190
06:00+13сз1180100 0.0 101123
09:00+15всв006279 0.0 1013293
12:00+21зсз1435100 0.0 10142557
15:00+21зюз243296 0.0 10152511
18:00+21зюз343534 0.0 10152289
21:00+14юз22627 0.0 101621